EHI
4 3 1 0 0 0 0 0 0 0 0 0 1 1 0 0 1 1 1 1 1 0 0 0 0 0 0 1 1 1 0 0 0 0 0 1 1 2 3 3 3 3 3
5 3 1 0 0 0 0 0 0 0 0 0 1 2 1 1 1 1 1 0 0 0 0 0 0 0 0 1 2 1 0 0 0 0 1 2 2 3 3 3 3 3 3
4 3 1 0 0 0 0 0 0 0 0 0 1 2 1 1 1 1 0 0 0 0 0 0 0 0 0 1 1 1 0 0 0 0 1 1 2 2 2 2 3 3 3
4 2 1 0 0 0 0 0 0 0 0 0 0 1 1 0 0 0 0 0 0 0 0 0 0 0 0 0 0 0 0 0 0 0 0 0 1 1 1 1 2 3 3
4 3 2 0 0 0 0 0 0 0 0 0 0 0 0 0 0 0 0 0 0 0 0 0 0 0 0 0 0 0 0 1 0 0 0 0 0 0 0 1 2 3 3
4 2 1 0 0 0 0 0 0 0 0 0 0 0 0 0 0 0 0 0 0 0 0 0 0 0 0 0 0 0 0 1 0 0 0 0 0 0 1 1 1 2 3
3 1 0 0 0 0 0 0 0 0 0 0 0 0 0 0 0 0 0 0 0 0 0 0 0 0 0 0 0 0 0 1 0 0 0 0 0 0 0 0 1 1 1
2 1 0 0 0 0 0 0 0 0 0 0 0 0 0 0 0 0 0 0 0 0 0 0 0 0 0 0 0 1 1 1 0 0 0 0 0 0 0 0 0 0 0
2 1 1 1 1 0 0 0 0 0 0 0 0 0 0 0 0 0 0 0 0 0 0 0 0 0 0 0 0 1 2 1 0 0 0 1 1 1 0 0 0 0 0
2 1 1 2 2 1 0 0 0 0 0 0 0 0 0 0 0 0 0 0 0 0 0 0 0 0 0 0 0 1 1 1 0 0 0 1 1 1 0 0 0 0 0
2 1 1 1 2 1 0 0 0 0 0 0 0 0 0 0 0 0 0 0 0 0 0 0 0 0 0 0 0 0 0 0 0 0 0 0 0 0 0 0 0 0 0
1 0 0 0 1 1 0 0 0 0 0 0 0 0 0 0 0 0 0 0 0 0 0 0 0 0 0 0 0 0 0 0 0 0 0 0 0 1 1 1 1 0 0
1 0 0 0 0 0 0 0 0 0 1 0 0 0 0 0 0 0 0 0 0 0 0 0 0 0 0 0 0 0 0 0 0 0 0 0 1 1 2 2 1 0 0
2 2 1 1 0 0 0 0 0 0 0 0 0 0 0 0 0 0 0 0 0 0 0 0 0 0 0 0 0 0 0 0 0 0 1 1 1 1 1 1 1 0 0
3 3 2 1 0 0 0 0 0 0 0 0 0 0 0 0 0 0 0 0 0 0 0 0 0 0 0 0 0 0 0 0 0 0 1 1 1 0 0 0 0 0 0
3 3 3 2 0 0 1 1 1 1 0 0 0 0 0 0 0 0 0 0 0 0 0 0 0 0 0 0 0 0 0 0 0 0 0 1 1 0 0 0 0 0 1
3 3 2 1 1 0 1 2 2 2 1 0 0 1 1 1 0 0 0 0 0 0 0 0 0 0 0 0 0 0 0 0 0 0 0 0 0 0 0 0 0 0 1
3 3 2 2 2 1 1 2 3 3 2 1 0 1 2 1 0 1 1 1 0 0 0 0 0 0 0 0 0 0 0 0 0 0 0 0 0 0 1 1 1 1 1
2 2 2 2 3 2 1 2 4 4 2 0 0 2 2 1 0 1 2 1 0 1 1 1 0 0 0 0 0 0 0 0 0 0 0 0 0 1 1 1 1 1 1
1 2 2 2 2 3 3 4 5 4 2 1 2 2 2 1 0 1 2 1 1 1 2 2 1 0 0 0 0 0 0 0 0 0 0 0 0 1 1 0 0 0 0
0 1 2 2 2 4 7 8 8 6 5 5 4 2 1 1 0 0 1 1 1 2 3 2 1 0 0 0 0 0 0 0 0 0 0 0 0 0 0 0 0 0 0
0 1 2 2 2 4 8 10 10 10 9 8 6 4 2 2 1 0 1 2 3 2 2 1 1 0 0 0 0 0 0 0 0 0 0 0 0 0 0 0 0 0 0
1 1 2 1 2 4 6 9 11 11 10 8 7 5 3 2 1 1 2 3 3 2 1 1 1 1 0 0 0 0 0 0 0 0 0 0 0 0 0 0 0 0 0
3 2 2 2 3 4 6 8 9 9 8 7 7 5 3 1 1 2 2 2 2 1 0 1 2 1 0 0 0 0 0 0 0 0 0 0 0 0 0 0 0 0 0
6 5 5 6 7 7 6 6 6 5 5 5 5 4 3 2 3 3 3 2 2 1 0 0 1 1 0 0 0 0 0 0 0 0 0 0 0 0 0 0 0 0 0
7 7 9 11 11 9 7 5 4 3 4 4 3 3 3 3 3 3 3 2 1 0 0 0 0 0 0 0 0 0 0 0 0 0 0 0 0 0 0 0 0 0 0
Wind_Speed
6 7 9 9 9 10 10 11 10 10 10 10 10 11 11 11 11 11 11 12 11 11 10 10 10 10 9 9 9 8 8 8 7 7 7 7 7 6 6 6 5 5 8
8 8 10 9 10 10 10 10 11 10 10 11 11 11 11 10 10 11 11 11 11 11 10 11 11 10 9 10 9 8 8 7 6 6 6 6 7 7 7 8 8 6 9
9 9 9 10 10 10 10 10 11 10 11 11 11 11 11 10 10 10 10 10 11 11 11 11 11 10 10 9 9 8 7 6 6 5 3 3 6 8 8 8 8 8 8
10 10 10 10 10 10 10 10 10 10 11 11 11 11 11 11 11 10 10 10 11 11 11 10 10 10 10 9 8 7 6 5 4 3 2 3 5 8 8 8 7 7 7
10 11 9 10 10 10 10 11 11 10 10 10 10 10 10 10 11 11 11 10 10 11 11 11 11 10 10 9 8 6 5 4 4 3 4 5 5 8 8 7 7 7 6
10 10 9 10 10 10 10 10 10 10 10 10 10 10 10 10 10 11 11 11 11 11 11 11 11 10 10 9 7 6 5 4 4 3 4 4 5 7 7 7 7 6 6
9 9 9 10 10 10 10 10 10 9 9 9 9 9 10 10 10 11 11 11 11 11 11 10 10 10 9 8 7 6 5 4 1 4 4 5 6 8 8 7 7 6 6
8 8 9 9 10 10 10 9 9 9 9 9 9 8 9 9 9 9 9 9 10 10 9 9 9 9 9 8 7 7 7 6 5 6 5 5 8 9 8 8 7 7 6
7 7 7 7 8 9 9 8 8 8 8 8 8 7 7 8 8 8 9 8 8 8 8 8 8 8 7 7 6 6 6 7 4 3 5 4 8 9 8 8 7 7 7
5 5 5 6 6 6 6 7 7 7 6 6 5 5 5 5 6 7 8 7 7 7 7 7 6 6 5 4 4 4 5 5 3 5 4 5 9 9 8 7 7 7 7
4 4 4 4 5 5 5 6 5 5 5 4 3 3 2 2 3 4 6 7 6 6 5 5 4 3 2 2 2 2 3 2 4 4 4 8 9 8 7 7 7 7 7
4 4 4 3 3 4 3 4 2 3 3 2 1 2 1 2 2 5 6 5 5 4 3 2 1 1 0 0 1 1 1 2 3 4 5 9 9 9 8 7 7 7 7
5 4 4 3 3 4 3 2 1 1 1 1 1 2 2 2 2 3 2 2 2 2 1 1 1 1 1 1 1 1 2 3 3 3 4 9 9 9 8 8 7 7 7
5 4 3 3 4 3 3 2 1 1 1 1 1 2 2 1 1 1 1 2 1 1 0 0 0 1 2 2 2 3 3 3 3 3 4 8 8 8 8 7 6 6 6
5 4 3 3 4 3 2 1 2 1 2 2 2 2 2 1 1 1 1 2 1 1 1 1 2 3 3 3 3 4 4 4 4 3 3 7 7 7 6 6 6 6 6
4 4 4 3 3 3 3 1 2 2 2 2 1 2 2 2 1 2 2 2 2 2 1 2 3 3 3 3 4 4 4 3 3 3 3 4 6 6 6 5 5 5 5
4 4 4 3 3 3 3 3 3 2 2 2 2 2 2 2 2 2 2 2 2 2 2 2 3 3 2 3 4 4 3 3 3 3 3 2 3 5 6 6 6 5 5
4 4 4 3 4 5 4 3 2 3 3 2 2 2 2 2 3 3 2 2 1 2 2 2 2 3 3 3 3 2 2 2 3 3 2 2 2 3 4 6 5 5 5
3 4 5 4 4 4 3 3 3 3 3 2 2 3 3 3 3 3 2 2 2 3 2 2 2 2 2 2 1 1 2 2 2 3 3 3 3 2 2 3 5 5 5
3 4 5 4 3 4 2 2 3 3 3 3 3 3 4 3 3 3 2 2 2 2 2 2 3 2 2 1 1 2 1 1 1 2 2 3 3 3 3 2 2 2 4
3 2 4 4 3 3 2 2 2 2 2 3 3 3 3 4 4 3 2 2 2 2 2 2 2 2 1 1 2 2 1 1 2 2 2 2 3 3 2 2 2 2 2
3 3 4 4 4 4 2 2 2 2 2 2 2 3 3 3 4 3 3 2 2 2 2 2 2 1 1 1 1 1 1 2 3 2 2 2 2 2 2 3 3 2 2
3 2 3 4 4 4 3 2 2 2 2 2 2 2 2 3 3 2 2 2 2 1 1 1 1 1 0 1 1 1 1 0 1 1 1 1 1 1 1 2 3 2 3
3 2 3 4 4 4 3 3 3 2 2 1 1 1 2 3 3 3 2 2 2 1 1 1 1 1 1 1 2 1 1 1 1 1 2 1 1 1 1 2 2 2 3
4 3 3 4 5 4 4 4 3 2 1 1 1 2 2 2 2 3 3 2 2 1 1 1 2 1 1 1 1 1 1 1 1 1 0 2 2 1 1 1 2 2 3
5 4 4 4 4 4 4 3 3 3 2 2 2 1 1 1 2 2 2 2 2 2 2 1 1 1 0 1 1 1 1 1 0 0 0 1 1 1 1 1 2 2 2
Wind_Direction
78 77 62 60 56 57 57 60 59 55 55 59 61 61 63 64 64 64 64 64 65 68 70 68 64 67 74 80 80 83 85 88 95 99 101 100 100 96 90 85 84 88 90
91 84 70 65 61 63 62 63 62 60 59 60 62 62 63 65 67 66 66 66 65 70 73 70 68 71 75 77 78 79 80 82 88 100 110 108 102 94 87 81 79 85 83
92 91 79 66 68 66 64 64 63 61 62 62 62 63 64 65 66 68 68 68 67 69 71 72 71 73 74 76 77 75 76 74 77 81 91 112 107 95 92 88 85 88 88
91 87 79 72 72 70 66 66 67 65 65 64 63 63 64 65 64 66 68 69 68 69 70 75 74 74 78 81 81 78 76 68 50 48 76 88 94 96 93 89 87 88 87
89 90 85 78 76 74 71 70 70 68 67 67 67 67 66 65 65 64 64 68 72 72 71 74 75 73 75 79 79 74 66 51 35 34 66 75 76 88 88 88 87 87 87
94 97 93 84 80 78 76 73 72 71 70 70 71 70 68 67 65 64 64 67 69 71 70 70 70 69 69 72 72 64 50 38 29 57 64 74 80 85 86 88 85 84 85
96 102 106 95 90 85 80 75 73 73 72 72 74 75 71 70 69 66 67 69 70 70 71 71 68 67 67 62 56 49 36 27 55 73 71 73 79 83 85 86 86 81 80
104 108 115 110 102 94 87 81 78 77 76 74 75 76 77 76 75 73 71 72 71 71 73 72 68 67 65 61 50 38 25 15 58 78 76 78 85 83 80 84 84 81 81
110 115 121 131 121 109 101 94 90 86 83 81 81 83 85 84 82 80 78 75 73 72 73 74 73 69 66 59 46 31 24 20 28 57 78 80 87 83 78 78 80 81 77
104 115 123 125 129 130 121 112 111 104 98 96 93 99 101 101 96 91 87 81 79 79 79 77 75 72 65 56 42 26 13 7 40 63 68 84 87 86 79 75 77 84 81
100 102 102 113 124 123 125 129 137 131 126 130 142 142 131 123 112 104 97 99 94 91 92 90 87 83 69 44 29 10 0 27 65 66 65 79 83 87 83 78 79 82 82
118 108 99 97 104 107 107 128 155 146 145 159 154 147 150 118 100 103 118 119 113 110 111 120 124 148 210 19 10 360 16 54 62 75 76 83 82 82 82 81 78 80 83
111 95 95 95 87 90 88 108 95 92 118 131 115 105 101 108 122 120 141 133 144 145 139 152 216 232 93 62 56 64 57 56 61 66 78 86 84 81 78 77 80 81 83
101 93 86 84 85 77 80 84 87 65 86 73 61 88 83 71 77 103 124 129 127 120 115 94 302 69 67 61 53 51 66 70 74 78 78 87 85 82 78 76 78 82 81
104 103 84 72 85 87 77 66 96 76 59 57 34 57 77 79 79 94 84 77 79 80 62 35 35 44 42 46 49 49 56 65 72 79 83 85 85 82 81 81 80 83 80
109 107 104 96 89 91 90 68 54 56 60 69 41 39 58 65 53 62 71 72 59 55 57 61 56 49 47 46 46 43 44 58 68 80 100 89 84 83 82 82 79 80 79
112 109 107 105 98 93 88 77 71 58 49 52 46 34 45 55 52 54 57 58 56 42 47 51 47 43 47 49 46 40 37 46 65 67 74 98 95 81 79 80 80 78 78
111 105 98 86 78 71 66 61 65 62 54 42 38 26 38 55 63 53 52 47 55 65 56 60 55 44 37 40 32 25 34 41 55 68 69 78 92 91 81 83 82 79 78
100 105 104 87 80 79 78 79 60 64 57 44 38 32 25 34 55 68 53 42 49 55 53 65 66 59 53 42 27 40 43 45 40 49 56 64 77 90 96 85 86 81 76
94 97 101 100 92 86 68 75 69 55 48 45 38 36 25 30 45 72 70 52 62 66 53 61 71 57 59 22 23 48 48 49 54 54 48 45 49 63 79 89 94 77 77
108 107 103 112 103 93 78 63 70 62 47 41 35 28 19 25 28 43 58 55 66 72 74 72 77 77 53 42 49 24 16 51 68 68 60 46 38 43 58 64 72 71 77
128 126 108 102 98 89 79 83 94 90 79 71 36 27 18 28 29 30 48 48 57 62 62 72 81 62 6 31 87 62 6 10 8 48 56 63 43 32 41 49 57 57 69
133 137 115 105 98 94 88 73 69 66 55 49 37 23 8 26 36 37 43 52 44 62 90 95 96 101 33 323 10 107 120 94 326 347 28 60 67 37 30 38 48 39 63
134 134 120 107 101 97 95 87 90 85 74 49 44 32 19 26 32 27 40 54 51 37 63 70 78 76 77 334 342 6 70 129 124 335 334 8 41 42 42 49 48 53 64
125 127 109 104 99 94 94 97 95 90 91 75 57 48 40 32 28 32 31 43 50 45 47 53 68 60 48 39 350 353 18 25 55 127 307 333 350 351 56 59 60 56 59
117 115 109 106 101 106 108 112 108 102 95 81 54 53 47 43 32 43 40 27 31 41 41 47 55 74 58 37 5 3 54 55 318 79 181 291 316 307 3 56 63 63 59